Other Public Products
Issued by NWS Grand Forks, ND

Home | Current Version | Previous Version | Graphics & Text | Print | Product List | Glossary On
Versions: 1 2 3 4 5 6 7 8 9 10 11 12 13 14 15 16 17 18 19 20 21 22 23 24 25 26 27 28 29 30 31 32 33 34 35 36 37 38 39 40 41 42 43 44 45 46 47 48 49 50
000
FPUS83 KFGF 010231
OPUFGF
PRAIRIE TO PINES WEATHER ROUNDUP
NATIONAL WEATHER SERVICE EASTERN NORTH DAKOTA/GRAND FORKS ND
900 PM CDT TUE JUN 30 2015

 **SATELLITE DATA USED TO AUGMENT SKY COVER AT AUTOMATED STATIONS**
 *****  WEATHER ACROSS EASTERN NORTH DAKOTA  *****

CITY           SKY/WX    TMP DP  RH WIND       PRES   REMARKS
GRAND FORKS    CLOUDY    70  61  73 CALM      29.90S
GRAND FORKS AF FAIR      68  62  81 CALM      29.91S
GRAND CITY NWS   N/A     68 N/A N/A SE1         N/A
BUXTON         NOT AVBL
DEVILS LAKE    FAIR      66  59  77 SE8       29.92S
FARGO          FAIR      70  62  76 NE3       29.90R
WAHPETON ARPT  FAIR      68  61  77 CALM      29.91
$$

 *****  WEATHER ACROSS CENTRAL AND WESTERN NORTH DAKOTA  *****

CITY           SKY/WX    TMP DP  RH WIND       PRES   REMARKS
JAMESTOWN      FAIR      68  59  73 E8        29.90S
BISMARCK       CLOUDY    71  65  81 E10       29.88S
MINOT          CLOUDY    67  63  87 CALM      29.92R FOG
MINOT AFB      LGT RAIN  66  66 100 NE5       29.91R FOG
GARRISON         N/A     65  62  90 CALM      29.93R
WILLISTON      CLOUDY    69  59  70 E16G22    29.91R HAZE
DICKINSON      CLOUDY    70  60  70 E12       29.86S
HETTINGER      CLOUDY    71  65  81 S7        29.87F
$$

 *****  OTHER OBSERVATIONS NORTHEAST NORTH DAKOTA  *****

CITY           SKY/WX    TMP DP  RH WIND       PRES   REMARKS
WALHALLA       FAIR      68  68 100 MISG      29.92S
LANGDON        FAIR      66  63  88 SE5       29.94S
CAVALIER       FAIR      70  61  73 CALM      29.91S HAZE
GRAFTON        FAIR      68  61  77 SW3       29.92R
CANDO          FAIR      64  61  88 SE6       29.93R
FORT TOTTEN      N/A     65  60  84 E7        29.95
ROLLA          FAIR      64  63  94 CALM      29.95S
RUGBY          NOT AVBL
 ***** THE ABOVE OBSERVATIONS ARE NON NWS ARE NOT QUALITY
        CONTROLLED AND MAY MIS-REPORT RAIN FOR SNOW...
$$

 *****  OTHER OBSERVATIONS SOUTHEAST NORTH DAKOTA *****

CITY           SKY/WX    TMP DP  RH WIND       PRES   REMARKS
COOPERSTOWN    NOT AVBL
VALLEY CITY    MOCLDY    66  63  88 E5        29.92R
OAKES            N/A     66  63  88 E10       29.89F
GWINNER        NOT AVBL
SHEYENNE NWR     N/A     68  64  86 CALM      29.95S
BUFFALO        NOT AVBL
WYNDMERE       NOT AVBL
 ***** THE ABOVE OBSERVATIONS ARE NON NWS ARE NOT QUALITY
       CONTROLLED AND MAY MIS-REPORT RAIN FOR SNOW...
$$

  *****  WEATHER ACROSS NORTHERN MINNESOTA  *****

CITY           SKY/WX    TMP DP  RH WIND       PRES   REMARKS
FLAG ISLAND    FAIR      68  54  60 S3        29.92F
WARROAD        FAIR      66  54  63 E3        29.94S
ROSEAU         FAIR      64  57  77 E3        29.94R
HALLOCK        FAIR      70  61  73 CALM      29.91R
THF RVR FALLS  FAIR      68  57  68 CALM      29.93R
HALSTAD        NOT AVBL
FOSSTON        FAIR      63  52  67 CALM      29.94S
BAUDETTE       FAIR      66  56  70 CALM      29.94S
WASKISH        FAIR      64  55  72 NE5       29.94S
CROOKSTON      FAIR      70  57  64 CALM      29.92R
$$
  *****  WEATHER ACROSS CENTRAL AND WEST MINNESOTA  *****

CITY           SKY/WX    TMP DP  RH WIND       PRES   REMARKS
BEMIDJI        FAIR      66  55  67 CALM      29.93S
PARK RAPIDS    FAIR      72  55  55 E3        29.93S
WADENA           N/A     68  59  73 CALM      29.92S
DETROIT LAKES  FAIR      70  59  68 CALM      29.94R
MOORHEAD       FAIR      68  63  83 CALM      29.91S
FERGUS FALLS   FAIR      70  63  78 CALM      29.91S
ELBOW LAKE     FAIR      67  62  84 CALM      29.91F
MORRIS MN      FAIR      66  63  88 CALM      29.90F
STAPLES        FAIR      68  54  60 CALM      29.93F
WHEATON        FAIR      63  61  94 SE3       29.92S
$$
  *****  WEATHER ELSEWHERE ACROSS MINNESOTA  *****

CITY           SKY/WX    TMP DP  RH WIND       PRES   REMARKS
DULUTH         FAIR      54  46  74 E7        29.97S
INTRNTL FALLS  FAIR      61  55  81 CALM      29.95S
ELY            FAIR      57  48  72 CALM      29.97R
CLOQUET        FAIR      54  46  76 E6        29.97S
BRAINERD       FAIR      64  58  80 S3        29.94R
HIBBING        FAIR      62  54  74 NE3       29.95S
ALEXANDRIA     FAIR      70  56  61 SE5       29.94F
SAINT CLOUD    FAIR      67  58  72 SE5       29.93S
MINNEAPOLIS    FAIR      70  55  59 NE9       29.93R
$$

  *****  WEATHER ACROSS SOUTH DAKOTA  *****

CITY           SKY/WX    TMP DP  RH WIND       PRES   REMARKS
SIOUX FALLS    CLOUDY    70  67  90 CALM      29.89F
BROOKINGS      FAIR      70  61  73 E10       29.92S
WATERTOWN      FAIR      69  62  78 E5        29.90F
HURON          CLOUDY    70  68  93 CALM      29.87R FOG
SISSETON         N/A     70  59  68 SE6       29.88F
ABERDEEN       PTCLDY    71  64  78 W3        29.88R
MITCHELL       LGT RAIN  70  68  93 SE3       29.88S
PIERRE         MOCLDY    72  65  78 SE9       29.83R
MOBRIDGE       MOCLDY    70  68  93 E8        29.85S FOG
RAPID CITY     CLEAR     77  69  76 E6        29.89S
$$

  *****  SOME WEATHER IN NEARBY STATES *****

CITY           SKY/WX    TMP DP  RH WIND       PRES   REMARKS
GLASGOW MT     NOT AVBL
GREAT FALLS MT SUNNY     84  48  28 N17       29.97R
CHEYENNE WY    CLOUDY    68  54  60 W17       30.14R
SCOTTSBLUFF NE MOCLDY    85  60  42 N9        29.93R
OMAHA NE       CLOUDY    73  67  81 CALM      29.89S
DES MOINES IA  CLOUDY    77  64  64 N3        29.88S
DAVENPORT IA   MOCLDY    68  63  84 NE5       29.88R
CHICAGO IL     MOCLDY    60  55  83 NE7       29.89R
EAU CLAIRE WI  FAIR      63  50  62 NE6       29.95R
LA CROSSE WI   FAIR      67  55  65 NE5       29.91R
$$

  *****  SOME NATIONAL WEATHER *****

CITY           SKY/WX    TMP DP  RH WIND       PRES   REMARKS
LA GUARDIA NY  MOCLDY    75  67  76 S14       29.87F
RALEIGH NC     MOCLDY    73  68  84 S8        29.92R
ATLANTA GA     MOCLDY    78  64  61 W13G18    30.00R
NEW ORLEANS LA LGT RAIN  76  68  76 W6        30.09R
OKLAHOMA CITY  MOCLDY    81  70  69 S7        29.93R
ALBUQUERQUE NM PTCLDY    91  45  20 SW9       30.06R
SALT LAKE CITY MOCLDY    96  48  19 N7        29.95S HX  92
LOS ANGELES CA CLOUDY    81  61  50 N6        29.80F
BOISE ID       MOSUNNY   98  42  14 N9        29.88S HX  94
SEATTLE WA     MOSUNNY   86  53  32 N10       30.03S
$$

*** WEATHER ACROSS MANITOBA...SASKATCHEWAN AND ONTARIO ***
                ***ONTARIO***

CITY           SKY/WX    TMP DP  RH WIND       PRES   REMARKS
GERALDTON      PTCLDY    55  41  58 NE3       29.97S
THUNDER BAY    NOT AVBL
SIOUX LOOKOUT  NOT AVBL
TORONTO        CLOUDY    63  59  88 S3        29.77R
BIG TROUT LK   CLEAR     55  43  62 CALM      29.93F
PICKLE LAKE    PTCLDY    63  39  42 S3        29.95R
DRYDEN         CLEAR     64  50  59 S3        29.96S
KENORA         NOT AVBL
$$
                *** MANITOBA***

CITY           SKY/WX    TMP DP  RH WIND       PRES   REMARKS
BRANDON        NOT AVBL
DAUPHIN        CLEAR     68  61  77 SE5       29.91S
ISLAND LAKE    CLOUDY    64  52  63 CALM      29.91S
PILOT MOUND      N/A     66  63  88 E5          N/A
THE PAS        CLOUDY    73  61  64 CALM      29.84S
THOMPSON       CLOUDY    64  57  77 N2        29.88S
WINNIPEG       NOT AVBL
LYNN LAKE        N/A    N/A N/A N/A MISG        N/A
CHURCHILL      MOCLDY    61  45  55 SE9       29.89
GILLAM         LGT RAIN  64  54  68 NE6       29.87S
$$
                ***SASKATCHEWAN***

CITY           SKY/WX    TMP DP  RH WIND       PRES   REMARKS
ESTEVAN        CLOUDY    66  64  94 S6        29.92F SMOKE
KINDERSLEY     MOSUNNY   68  61  77 E3        29.98R SMOKE
LLOYDMINSTER   CLOUDY    70  57  64 NE6       29.97
PRINCE ALBERT    N/A     70  66  88 SW6       29.88S SMOKE
REGINA         MOCLDY    64  61  88 VRB2      29.92F SMOKE



USA.gov is the U.S. government's official web portal to all federal, state and local government web resources and services.